STARLINK-48 (44289 NORAD) Tracking and Keplerian Element Data

This shows tracking and keplerian element data for the satellite.

Feedback or suggestion? Click here.




ElementValue
Catalog44289
NameSTARLINK-48
Epoch Orbit10722
Epoch Day108.57519667
Epoch Year2021
RAAN201.5628
Inclination52.9905
Eccentricity0.0008484
Argument of Perigee323.9147
Mean Anonmoly36.3798
Mean Motion16.38335892
Decay Rate0.35374924
L11 44289U 19029BG 21108.57519667 .35374924 12432-4 30987-2 0 9998
L22 44289 52.9905 201.5628 0008484 323.9147 36.3798 16.38335892107222



Live tracking and technical data element details for STARLINK-48 (NORAD 44289). STARLINK-48 can be tracked NOW for your location showing map with azimuth and elevation plus other details from your city location.







IsCatalogInMostPopularTable: catalog: 44289, numindb: 313
Update: records affected: 1



GetName: 44289 STARLINK-48

Hit Count: updated at: Thu, 15 May 2025 19:01:20 GMT